Flag for U.S.A. Weather past 2 weeks in New York, New York, U.S.A.

Now
52 °F

Partly sunny.


Feels Like: 48 °F
Forecast: 45 / 58 °F
Wind: 12 mph from Northwest

Location: New York City - Central Park


UV Index: 3 (Moderate)

Visibility: 10 mi


Pressure: 29.59 "Hg

Humidity: 49%

Dew point: 33 °F

Location of New YorkLocation

Historic Weather in New York

°F

New York temperature yesterday

Maximum temperature yesterday: 71 °F (at 2:51 PM)
Minimum temperature yesterday: 52 °F (at 3:51 AM)
Average temperature yesterday: 61 °F

Past Weeks' High & Low Weather Summary

 TemperatureHumidityPressure
High76 °F (Apr 13, 4:51 PM)93% (Apr 15, 5:51 AM)30.73 "Hg (Apr 15, 5:51 AM)
Low32 °F (Apr 16, 5:51 AM)17% (Apr 19, 11:51 AM)29.40 "Hg (Apr 8, 12:51 PM)
Average54 °F50%30.07 "Hg
* Reported Apr 8 9:00 AM — Apr 23 9:51 AM, New York, Weather by CustomWeather, © 2014

Note: Actual official high and low records may vary slightly from our data, if they occured in-between our weather recording intervals... More about our weather records

Advertising

Historic Weather Conditions — Data for Previous 24 hours

 ConditionsComfort  
Time TempWeatherWind HumidityBarometerVisibility
9:51 AM
Apr 23
52 °FPartly sunny.12 mph49%29.59 "Hg10 mi
8:51 AM50 °FOvercast.9 mph52%29.58 "Hg10 mi
7:51 AM50 °FOvercast.7 mph50%29.57 "Hg10 mi
6:51 AM50 °FOvercast.5 mph54%29.57 "Hg10 mi
5:51 AM51 °FMostly cloudy.8 mph63%29.55 "Hg10 mi
4:51 AM55 °FMostly cloudy.6 mph62%29.52 "Hg10 mi
3:51 AM56 °FMostly cloudy.6 mph62%29.50 "Hg10 mi
2:51 AM59 °FMostly cloudy.7 mph62%29.50 "Hg10 mi
1:51 AM59 °FClear.No wind62%29.49 "Hg10 mi
12:51 AM61 °FClear.7 mph58%29.50 "Hg10 mi
11:51 PM
Apr 22
62 °FClear.5 mph58%29.51 "Hg10 mi
10:51 PM62 °FClear.6 mph65%29.52 "Hg9 mi
9:51 PM63 °FPassing clouds.3 mph65%29.53 "Hg9 mi
8:51 PM63 °FPassing clouds.3 mph65%29.54 "Hg10 mi
7:51 PM64 °FLight rain. More clouds than sun.8 mph65%29.53 "Hg7 mi
6:51 PM66 °FMostly cloudy.7 mph56%29.52 "Hg10 mi
5:51 PM67 °FMostly cloudy.No wind57%29.53 "Hg10 mi
4:51 PM67 °FOvercast.No wind51%29.54 "Hg10 mi
3:51 PM69 °FBroken clouds.6 mph42%29.54 "Hg10 mi
2:51 PM71 °FSunny.7 mph39%29.57 "Hg10 mi
1:51 PM69 °FSunny.9 mph44%29.59 "Hg10 mi
12:51 PM67 °FSunny.8 mph45%29.62 "Hg10 mi
11:51 AM67 °FSunny.3 mph44%29.64 "Hg10 mi
Weather by CustomWeather, © 2014

See weather overview